Regional Weather Roundup
Issued by NWS San Angelo, TX

Home | Current Version | Previous Version | Text Only | Print | Product List | Glossary On
Versions: 1 2 3 4 5 6 7 8 9 10 11 12 13 14 15 16 17 18 19 20 21 22 23 24 25 26 27 28 29 30 31 32 33 34 35 36 37 38 39 40 41 42 43 44 45 46 47 48 49 50
000
ASUS44 KSJT 021310
RWRSJT
WEST CENTRAL TEXAS REGIONAL WEATHER ROUNDUP
NATIONAL WEATHER SERVICE SAN ANGELO TX
800 AM CDT SUN AUG 02 2015

NOTE: "FAIR" INDICATES FEW OR NO CLOUDS BELOW 12,000 FEET WITH NO
SIGNIFICANT WEATHER AND/OR OBSTRUCTIONS TO VISIBILITY.

TXZ049-054-064>066-071>073-076>078-098-099-113-114-127-128-139-140-
154-155-168>170-021400
...LOCATIONS ACROSS WEST CENTRAL TEXAS...

CITY           SKY/WX    TMP DP  RH WIND       PRES   REMARKS
SAN ANGELO     SUNNY     73  60  63 E5        29.99R
ABILENE        CLOUDY    77  60  55 SE6       30.00R
DYESS AFB      MOSUNNY   76  60  58 SE9       29.98R
JUNCTION       MOSUNNY   74  60  61 CALM      30.00R
SWEETWATER     MOSUNNY   77  59  53 S6        30.04R
BROWNWOOD      NOT AVBL
COLEMAN        PTSUNNY   74  62  66 CALM      30.00R
SONORA         MOSUNNY   73  59  60 CALM      30.05R
OZONA          FAIR      70  61  73 CALM      30.04R
BRADY          PTSUNNY   75  61  60 CALM      30.00R
$$

TEXAS PANHANDLE/OKLAHOMA PANHANDLE

CITY           SKY/WX    TMP DP  RH WIND       PRES   REMARKS
AMARILLO       MOSUNNY   68  64  87 S10       30.05S
BORGER         PTSUNNY   71  68  90 S8        30.01F
CANADIAN       CLOUDY    73  69  88 S10G16    29.97R
DALHART        CLOUDY    69  65  86 E6        30.06S FOG
DUMAS          CLOUDY    66  65  96 S7        30.04S FOG
GUYMON         NOT AVBL
HEREFORD       MOSUNNY   69  66  92 MISG      30.07S
PAMPA          PTSUNNY   71  68  90 S8        30.03S
PERRYTON       NOT AVBL
$$

SOUTHERN PANHANDLE/SOUTH PLAINS/ROLLING PLAINS

CITY           SKY/WX    TMP DP  RH WIND       PRES   REMARKS
LUBBOCK        MOSUNNY   69  67  93 E3        30.05R FOG
SNYDER         MOSUNNY   71  62  72 S5        30.02S
CHILDRESS      PTSUNNY   72  69  90 CALM      29.99S
SEMINOLE       MOSUNNY   72  61  69 CALM      30.06S
$$

PERMIAN BASIN

CITY           SKY/WX    TMP DP  RH WIND       PRES   REMARKS
MIDLAND        SUNNY     74  63  68 SE7       30.01S
ODESSA         SUNNY     76  61  59 S10       30.02S
WINK           CLEAR     76  61  59 E8        29.99R
$$

FAR WEST/SOUTHWEST MOUNTAINS/TRANS PECOS

CITY           SKY/WX    TMP DP  RH WIND       PRES   REMARKS
ALPINE         SUNNY     69  60  73 SW8       30.17R
DRYDEN           N/A     76  65  68 NW7       29.98R
EL PASO        MOCLDY    76  60  57 SW3       30.05R
FORT STOCKTON  CLEAR     74  60  61 S6        30.02R
GUADALUPE PASS CLEAR     69  59  70 W12       30.16F
MARFA          CLEAR     63  61  94 NW6       30.16R
PECOS          SUNNY     72  57  60 CALM      29.98S
$$

DALLAS/FORT WORTH METROPLEX

CITY           SKY/WX    TMP DP  RH WIND       PRES   REMARKS
DFW AIRPORT    PTSUNNY   82  60  47 SE7       29.96R
FTW MEACHAM    CLOUDY    84  59  42 SE9       29.96R
DAL-EXECUTIVE  SUNNY     78  61  55 SE5       29.96R
GRAND PRAIRIE  SUNNY     81  63  54 SE5       29.98R
ADDISON        MOSUNNY   82  57  42 SE8       29.98
MESQUITE       SUNNY     75  63  64 CALM      29.97R
LANCASTER      SUNNY     76  60  57 CALM      29.97R
$$

NORTH CENTRAL TEXAS

CITY           SKY/WX    TMP DP  RH WIND       PRES   REMARKS
SHRMAN/DENISON PTSUNNY   80  64  58 S9        29.98R
GAINESVILLE    CLOUDY    76  65  68 CALM      30.00R
BRIDGEPORT     NOT AVBL
DENTON         CLOUDY    78  63  59 CALM      29.96R
WAXAHACHIE     SUNNY     76  64  66 CALM      29.98R
GRANBURY       CLOUDY    79  63  58 CALM      29.99R
$$

WESTERN NORTH TEXAS

CITY           SKY/WX    TMP DP  RH WIND       PRES   REMARKS
WICHITA FALLS  CLOUDY    75  71  87 SE7       29.97S
VERNON         CLOUDY    75  68  78 SE8       29.97S
BRECKENRIDGE   CLOUDY    80  60  50 CALM      29.99R
COMANCHE       CLOUDY    74  69  86 CALM      29.99S
$$

CENTRAL AND SOUTH CENTRAL TEXAS

CITY           SKY/WX    TMP DP  RH WIND       PRES   REMARKS
AUSTIN/BERGSTM MOSUNNY   74  68  81 CALM      29.94R
WACO           MOSUNNY   79  62  56 E5        29.96R
HILLSBORO      MOSUNNY   79  57  47 S3        29.97R
TEMPLE         SUNNY     77  59  53 CALM      29.96R
KILLEEN-GRAY   CLOUDY    80  62  54 CALM      29.96R
FORT HOOD      CLOUDY    82  63  51 CALM      29.95R
GEORGETOWN     PTSUNNY   75  64  69 CALM      29.95R
LAGO VISTA     CLOUDY    81  61  50 W3        29.98S
SAN MARCOS     SUNNY     73  66  78 MISG      29.96R
NEW BRAUNFELS  MOSUNNY   76  68  76 CALM      29.93R
RANDOLPH AFB   SUNNY     74  67  80 NW2       29.95R
SAN ANTONIO    MOSUNNY   76  67  73 CALM      29.95R
STINSON        SUNNY     76  69  79 CALM      29.93R
PLEASANTON     NOT AVBL
LA GRANGE      SUNNY     74  70  87 CALM      29.92R
GIDDINGS       SUNNY     74  69  85 CALM      29.98R
$$

EAST TEXAS

CITY           SKY/WX    TMP DP  RH WIND       PRES   REMARKS
PARIS          MOSUNNY   75  63  64 E6        29.98R
CLARKSVILLE    NOT AVBL
TYLER          SUNNY     81  59  47 SE7       29.97R
LONGVIEW       SUNNY     75  68  78 CALM      29.96S
PALESTINE      SUNNY     78  61  54 E6        29.97R
NACOGDOCHES    SUNNY     68  64  88 CALM      29.95S
$$

TEXAS HILL COUNTRY AND EDWARDS PLATEAU

CITY           SKY/WX    TMP DP  RH WIND       PRES   REMARKS
LLANO          MOSUNNY   79  61  53 CALM      30.01R
HORSESHOE BAY  FAIR      75  64  67 CALM      29.97S
KERRVILLE      SUNNY     72  68  89 CALM      30.00R
FREDERICKSBRG  SUNNY     72  66  80 CALM      30.00S
ROCKSPRINGS    MOSUNNY   73  63  68 SE5       30.04S
HONDO          SUNNY     72  65  78 N3        29.97R
UVALDE         SUNNY     72  65  79 NE5       29.96R
DEL RIO        SUNNY     75  64  68 E5        29.93R
$$

SOUTHEAST TEXAS

CITY           SKY/WX    TMP DP  RH WIND       PRES   REMARKS
COLLEGE STN    SUNNY     77  63  61 E3        29.94R
CALDWELL       SUNNY     73  66  78 CALM      29.97S
CROCKETT       CLOUDY    77  66  69 NE3       29.98R
BRENHAM        SUNNY     73  70  89 CALM      29.95R
HUNTSVILLE     SUNNY     72  64  76 CALM      29.94S
CONROE         SUNNY     72  64  76 CALM      29.94R
HOUSTON BUSH   MOSUNNY   78  68  71 N3        29.92R
HOUSTON HOBBY  MOSUNNY   81  69  67 N5        29.91R
PERLAND        SUNNY     81  71  71 N3        29.93R
WHARTON        SUNNY     74  71  89 CALM      29.93R
$$

THE UPPER TEXAS COAST

CITY           SKY/WX    TMP DP  RH WIND       PRES   REMARKS
ORANGE         SUNNY     71  71  99 CALM      29.93R
PORT ARTHUR    SUNNY     78  65  63 N7        29.91R
GALVESTON      SUNNY     85  77  77 N8        29.91R
ANGLETON       SUNNY     76  73  91 N5        29.91R
BAY CITY       SUNNY     75  75  99 CALM      29.91R
$$

TEXAS COASTAL BEND, RIO GRANDE PLAINS DEEP SOUTH TEXAS

CITY           SKY/WX    TMP DP  RH WIND       PRES   REMARKS
VICTORIA       SUNNY     73  73 100 N5        29.92R FOG
BEEVILLE       FAIR      70  70 100 NW3       29.92R FOG
ROCKPORT       MOSUNNY   80  77  90 N6        29.90R FOG
PORT ARANSAS   CLOUDY    79  76  91 NW9       29.90R
PORT LAVACA    SUNNY     75  74  97 N5        29.92R FOG
CORPUS CHRISTI PTSUNNY   77  73  87 NW3       29.91R
KINGSVILLE NAS MOSUNNY   78  75  90 N3        29.91R
COTULLA        SUNNY     76  70  82 E5        29.92R
LAREDO         SUNNY     76  68  76 E6        29.93R
BROWNSVILLE    MOSUNNY   76  74  93 NE5       29.89R
PORT ISABEL    MOSUNNY   76  73  91 CALM      29.89R
HEBBRONVILLE     N/A     70  66  89 CALM      29.93S
MCALLEN        MOSUNNY   81  71  71 SE3       29.90R
WESLACO        MOSUNNY   76  70  83 CALM      29.89R
FALFURRIAS     SUNNY     74  69  87 CALM      29.90R
EDINBURG       SUNNY     76  71  87 CALM      29.90R
$$



USA.gov is the U.S. government's official web portal to all federal, state and local government web resources and services.